Location: Akho
(42.3047°N, 44.1844°E)
Time: 08:48:22
(UTC+00:00)

CZ-3 R/B - Pass Details

Date: 07 June 2020
Orbit: 359 x 10253 km, 28.4° (Epoch: 05 July)

Event Time Altitude Azimuth Distance (km) Brightness Sun altitude
Exits shadow 00:42:08 - 246° (WSW) 12,885 6.6 -7.5°
Reaches altitude 10° 00:53:35 10° 243° (WSW) 10,702 6.2 -5.9°
Maximum altitude 01:23:18 43° 185° (S) 3,287 4.0 -1.4°
Drops below altitude 10° 01:31:41 10° 115° (ESE) 3,319 4.8 -0.1°
Sets 01:33:40 0° 107° (ESE) 3,826 5.3 0.2°
